This is the latest recevied weather packets stored in our database for station/object 9A3SWO. If no packets are shown the sender has not sent any weather packets the latest 10 day(s).
| Time | Temp. | Humidity | Pressure | Rain* | Wind** | Luminosity | Snow |
|---|---|---|---|---|---|---|---|
| 1787419678 | 23.33° C | 56% | 1019.5 hPa | - | - | - | - |
| 1787419078 | 23.33° C | 57% | 1019.2 hPa | - | - | - | - |
| 1787418478 | 22.78° C | 56% | 1019.1 hPa | - | - | - | - |
| 1787417877 | 23.33° C | 55% | 1019 hPa | - | - | - | - |
| 1787417278 | 23.33° C | 54% | 1019 hPa | - | - | - | - |
| 1787416678 | 23.33° C | 55% | 1019 hPa | - | - | - | - |
| 1787416078 | 22.78° C | 57% | 1018.9 hPa | - | - | - | - |
| 1787415478 | 23.33° C | 54% | 1018.9 hPa | - | - | - | - |
| 1787414878 | 23.33° C | 53% | 1018.8 hPa | - | - | - | - |
| 1787414277 | 23.33° C | 53% | 1018.8 hPa | - | - | - | - |
| 1787413677 | 23.33° C | 54% | 1018.7 hPa | - | - | - | - |
| 1787413078 | 23.89° C | 53% | 1018.5 hPa | - | - | - | - |
| 1787412477 | 23.89° C | 54% | 1018.5 hPa | - | - | - | - |
| 1787411889 | 23.89° C | 54% | 1018.5 hPa | - | - | - | - |
| 1787411277 | 24.44° C | 54% | 1018.4 hPa | - | - | - | - |
| 1787410678 | 24.44° C | 56% | 1018.5 hPa | - | - | - | - |
| 1787410078 | 24.44° C | 55% | 1018.5 hPa | - | - | - | - |
| 1787409478 | 25° C | 55% | 1018.3 hPa | - | - | - | - |
| 1787408878 | 23.89° C | 56% | 1018.1 hPa | - | - | - | - |
| 1787408277 | 24.44° C | 56% | 1018.1 hPa | - | - | - | - |
| 1787407677 | 24.44° C | 55% | 1018.2 hPa | - | - | - | - |
| 1787407078 | 25° C | 53% | 1018 hPa | - | - | - | - |
| 1787406477 | 24.44° C | 54% | 1018 hPa | - | - | - | - |
| 1787405877 | 24.44° C | 53% | 1018 hPa | - | - | - | - |
| 1787405277 | 24.44° C | 54% | 1018.2 hPa | - | - | - | - |
* Rain since midnight (hover to see other rain measurements)
** Current wind speed in m/s (hover to see current wind gust speed)